Regional Weather Roundup
Issued by NWS Northern Indiana

Home | Current Version | Previous Version | Text Only | Print | Product List | Glossary On
Versions: 1 2 3 4 5 6 7 8 9 10 11 12 13 14 15 16 17 18 19 20 21 22 23 24 25 26 27 28 29 30 31 32 33 34 35 36 37 38 39 40 41 42 43 44 45 46 47 48 49 50
000
ASUS43 KIWX 270410
RWRIWX

KIWX WEATHER ROUNDUP
NATIONAL WEATHER SERVICE NORTHERN INDIANA
1100 PM EST THU FEB 26 2015

NOTE: "FAIR" INDICATES FEW OR NO CLOUDS BELOW 12,000 FEET WITH NO
SIGNIFICANT WEATHER AND/OR OBSTRUCTIONS TO VISIBILITY.

* THESE STATIONS ARE NOT UNDER NWS QUALITY CONTROL. THEY ALSO MAY NOT
  REPORT WEATHER SUCH AS PRECIPITATION OR FOG.

INZ001>027-270500-
NORTHERN INDIANA

CITY           SKY/WX    TMP DP  RH WIND       PRES   REMARKS
GARY*          CLEAR      8  -6  53 W8        30.42R WCI  -5
VALPARAISO     CLOUDY    10   0  63 NW8       30.38S WCI  -2
MICHIGAN CITY* CLOUDY    10   5  79 CALM      30.39R
LAPORTE*       PTCLDY     6   2  86 CALM      30.38R
KNOX*            N/A     10   0  61 W5        30.38S WCI   2
SOUTH BEND     MOCLDY     3  -4  72 W3        30.37R
GOSHEN         CLEAR      2  -7  66 W3        30.35R
MONTICELLO*    LGT SNOW   6   3  88 CALM      30.39R
LOGANSPORT*    CLOUDY     9   1  72 NW3       30.39R
ROCHESTER*     CLEAR     10   3  72 NW5       30.38R WCI   2
WARSAW*        CLEAR      3  -4  72 W3        30.36R
ANGOLA*        CLEAR      0  -4  85 CALM      30.32R
FORT WAYNE     PTCLDY     8  -3  61 NW8       30.35R WCI  -4
HUNTINGTON*    CLEAR      7  -8  50 N6        30.35R WCI  -3
PERU/GRISSOM   PTCLDY     7   0  71 W7        30.36R WCI  -4
MARION*        CLEAR      5  -4  67 NW6       30.36R WCI  -6

$$
INZ028>050-270500-
CENTRAL INDIANA

CITY           SKY/WX    TMP DP  RH WIND       PRES   REMARKS
LAFAYETTE      CLOUDY    10   6  84 W3        30.40R
KOKOMO*        CLEAR      9   0  66 NW8       30.37R WCI  -4
MUNCIE*        CLEAR      7   1  76 NW7       30.33S WCI  -5
INDIANAPOLIS   PTCLDY     9   1  70 NW9       30.37R WCI  -4

$$
MIZ043>046-050>051-056>058-064>065-071>073-077>080-270500-
SOUTHWEST LOWER MICHIGAN

CITY           SKY/WX    TMP DP  RH WIND       PRES   REMARKS
BATTLE CREEK   CLEAR      0  -8  69 CALM      30.33R
BENTON HARBOR  MOCLDY    10  -1  61 NE3       30.38R
COLDWATER*     CLEAR     -2  -8  76 CALM      30.33R
HILLSDALE*     FAIR       1  -5  77 CALM      30.30R
HOLLAND        CLEAR      6  -8  52 N8        30.39R WCI  -7
GRAND RAPIDS   FAIR       4  -9  55 N8        30.36R WCI  -9
KALAMAZOO      CLEAR      1  -9  62 CALM      30.34R
STURGIS*       CLEAR      3  -8  60 CALM      30.33S
THREE RIVERS*  FAIR      -3 -10  69 CALM      30.35S

$$
OHZ001>008-015>018-024>025-270500-
NORTHWEST OHIO

CITY           SKY/WX    TMP DP  RH WIND       PRES   REMARKS
WAUSEON*       FAIR       7  -2  66 NW5       30.34R WCI  -2
DEFIANCE       MOCLDY     9  -1  64 N6        30.36R WCI  -1
FINDLAY        CLEAR      9   5  84 NW5       30.32R WCI   1
TOLEDO EXPRESS PTCLDY     7  -1  70 CALM      30.34R
TOLEDO METCALF   N/A     10  -1  61 N5        30.35R WCI   2
LIMA           CLOUDY     8   3  80 CALM      30.31R

$$
AND FOR LAKE MICHIGAN COASTAL AND OPEN LAKE BUOY OBSERVATIONS

STATION/POSITION TEMP    WIND        PRES    VSBY  WAVE
                 AIR SEA DIR/SP/G                  HT/PER
                 (F)     (DEG/KT/KT) (MB)    (MI)  (FT/S)
CALUMET HARBOR    10     280/  6/  9 1028.5R
MICHIGAN CITY     11     320/  3/  4   N/A
SAINT JOSEPH      13     360/  8/ 10 1029.5R

$$
&&


USA.gov is the U.S. government's official web portal to all federal, state and local government web resources and services.